This demonstration page uses our WeatherBlox Daily Observations layout. Learn more.

38.88101, -77.10428

Hourly Observations for June 22, 2016

Temp ( °F °C ) Dew Point ( °F °C ) Humidity (%) Winds ( mph kmh ) Pressure ( in mb ) Visibility ( mi km ) Precip ( " mm )
12:52 am 00:52 Partly Cloudy 72 22.2 70 21.1 94 94 SSW 3 6 29.84 1011 10 16.0934 0 0
1:52 am 01:52 Mostly Clear 71 21.7 69 20.6 94 94 SSW 6 9 29.84 1010 10 16.0934 0 0
2:52 am 02:52 Mostly Clear 71 21.7 69 20.6 94 94 SSW 3 6 29.84 1011 10 16.0934 0 0
3:52 am 03:52 Mostly Clear 70 21.1 67 19.4 90 90 SSW 6 9 29.85 1011 10 16.0934 0 0
4:52 am 04:52 Mostly Clear 70 21.1 66 18.9 87 87 SW 6 9 29.86 1011 10 16.0934 0 0
5:52 am 05:52 Mostly Sunny 69 20.6 66 18.9 90 90 SSW 3 6 29.86 1011 10 16.0934 0 0
6:52 am 06:52 Partly Cloudy 71 21.7 66 18.9 84 84 SSE 5 7 29.87 1011 10 16.0934 0 0
7:52 am 07:52 Mostly Cloudy 75 23.9 64 17.8 69 69 WSW 5 7 29.9 1013 10 16.0934 0 0
8:52 am 08:52 Partly Cloudy 78 25.6 62 16.7 58 58 WSW 6 9 29.93 1013 10 16.0934 0 0
9:52 am 09:52 Partly Cloudy 81 27.2 56 13.3 42 42 WNW 12 19 29.93 1014 10 16.0934 0 0
10:52 am 10:52 Mostly Cloudy 82 27.8 50 10 33 33 WNW 18 30 29.94 1014 10 16.0934 0 0
11:52 am 11:52 Cloudy 83 28.3 52 11.1 34 34 WNW 15 24 29.95 1014 10 16.0934 0 0
12:52 pm 12:52 Cloudy 83 28.3 51 10.6 33 33 W 15 24 29.96 1015 10 16.0934 0 0
1:52 pm 13:52 Cloudy 85 29.4 51 10.6 31 31 WNW 13 20 29.96 1015 10 16.0934 0 0
2:52 pm 14:52 Cloudy 85 29.4 51 10.6 31 31 WNW 13 20 29.94 1014 10 16.0934 0 0
3:52 pm 15:52 Mostly Cloudy 83 28.3 53 11.7 36 36 N 16 26 29.96 1014 10 16.0934 0 0
4:52 pm 16:52 Mostly Cloudy 82 27.8 54 12.2 38 38 NW 10 17 29.96 1014 10 16.0934 0 0
5:52 pm 17:52 Mostly Cloudy 81 27.2 53 11.7 38 38 W 5 7 29.93 1014 10 16.0934 0 0
6:52 pm 18:52 Mostly Cloudy 82 27.8 55 12.8 40 40 VRB 5 7 29.92 1013 10 16.0934 0 0
7:52 pm 19:52 Mostly Cloudy 80 26.7 64 17.8 58 58 WSW 10 17 29.95 1014 10 16.0934 0 0
8:52 pm 20:52 Mostly Cloudy 77 25 66 18.9 69 69 SW 6 9 29.95 1014 10 16.0934 0 0
9:52 pm 21:52 Mostly Cloudy 76 24.4 67 19.4 74 74 SSW 3 6 29.97 1015 10 16.0934 0 0
10:52 pm 22:52 Partly Cloudy 75 23.9 69 20.6 82 82 S 6 9 29.97 1015 10 16.0934 0 0
11:52 pm 23:52 Mostly Clear 74 23.3 69 20.6 85 85 S 6 9 29.96 1015 10 16.0934 0 0

Powered by AerisWeather